<?xml version="1.0"?>
<gpx xmlns="http://www.topografix.com/GPX/1/1" xmlns:xsi="http://www.w3.org/2001/XMLSchema-instance" version="1.1" creator="GPX RubyGem 1.0.0 -- http://dougfales.github.io/gpx/" xsi:schemaLocation="http://www.topografix.com/GPX/1/1 http://www.topografix.com/GPX/1/1/gpx.xsd">
  <metadata>
    <name/>
    <time>2026-05-07T19:50:21+00:00</time>
    <bound minlat="90.0" minlon="180.0" maxlat="-90.0" maxlon="-180.0"/>
  </metadata>
  <trk>
    <name/>
    <trkseg>
      <trkpt lat="45.381775" lon="6.735825">
        <time>1970-01-01T00:00:00+00:00</time>
        <ele>1654.0</ele>
      </trkpt>
      <trkpt lat="45.381806" lon="6.736124">
        <time>1970-01-01T00:00:00+00:00</time>
        <ele>1654.0</ele>
      </trkpt>
      <trkpt lat="45.382154" lon="6.737054">
        <time>1970-01-01T00:00:00+00:00</time>
        <ele>1663.0</ele>
      </trkpt>
      <trkpt lat="45.382639" lon="6.737851">
        <time>1970-01-01T00:00:00+00:00</time>
        <ele>1680.0</ele>
      </trkpt>
      <trkpt lat="45.383541" lon="6.739129">
        <time>1970-01-01T00:00:00+00:00</time>
        <ele>1709.0</ele>
      </trkpt>
      <trkpt lat="45.383634" lon="6.739354">
        <time>1970-01-01T00:00:00+00:00</time>
        <ele>1713.0</ele>
      </trkpt>
      <trkpt lat="45.384171" lon="6.740057">
        <time>1970-01-01T00:00:00+00:00</time>
        <ele>1735.0</ele>
      </trkpt>
      <trkpt lat="45.38422" lon="6.740307">
        <time>1970-01-01T00:00:00+00:00</time>
        <ele>1737.0</ele>
      </trkpt>
      <trkpt lat="45.384696" lon="6.741091">
        <time>1970-01-01T00:00:00+00:00</time>
        <ele>1749.0</ele>
      </trkpt>
      <trkpt lat="45.38507" lon="6.741983">
        <time>1970-01-01T00:00:00+00:00</time>
        <ele>1767.0</ele>
      </trkpt>
      <trkpt lat="45.385249" lon="6.742065">
        <time>1970-01-01T00:00:00+00:00</time>
        <ele>1772.0</ele>
      </trkpt>
      <trkpt lat="45.385805" lon="6.741387">
        <time>1970-01-01T00:00:00+00:00</time>
        <ele>1786.0</ele>
      </trkpt>
      <trkpt lat="45.385975" lon="6.741281">
        <time>1970-01-01T00:00:00+00:00</time>
        <ele>1792.0</ele>
      </trkpt>
      <trkpt lat="45.386566" lon="6.742285">
        <time>1970-01-01T00:00:00+00:00</time>
        <ele>1817.0</ele>
      </trkpt>
      <trkpt lat="45.386827" lon="6.743258">
        <time>1970-01-01T00:00:00+00:00</time>
        <ele>1832.0</ele>
      </trkpt>
      <trkpt lat="45.386879" lon="6.744296">
        <time>1970-01-01T00:00:00+00:00</time>
        <ele>1846.0</ele>
      </trkpt>
      <trkpt lat="45.386993" lon="6.74506">
        <time>1970-01-01T00:00:00+00:00</time>
        <ele>1857.0</ele>
      </trkpt>
      <trkpt lat="45.386894" lon="6.746626">
        <time>1970-01-01T00:00:00+00:00</time>
        <ele>1889.0</ele>
      </trkpt>
      <trkpt lat="45.386937" lon="6.747138">
        <time>1970-01-01T00:00:00+00:00</time>
        <ele>1898.0</ele>
      </trkpt>
      <trkpt lat="45.387276" lon="6.74775">
        <time>1970-01-01T00:00:00+00:00</time>
        <ele>1913.0</ele>
      </trkpt>
      <trkpt lat="45.388186" lon="6.749733">
        <time>1970-01-01T00:00:00+00:00</time>
        <ele>1954.0</ele>
      </trkpt>
      <trkpt lat="45.388612" lon="6.750223">
        <time>1970-01-01T00:00:00+00:00</time>
        <ele>1970.0</ele>
      </trkpt>
      <trkpt lat="45.388853" lon="6.75062">
        <time>1970-01-01T00:00:00+00:00</time>
        <ele>1980.0</ele>
      </trkpt>
      <trkpt lat="45.388993" lon="6.751382">
        <time>1970-01-01T00:00:00+00:00</time>
        <ele>1992.0</ele>
      </trkpt>
      <trkpt lat="45.389503" lon="6.752468">
        <time>1970-01-01T00:00:00+00:00</time>
        <ele>2006.0</ele>
      </trkpt>
      <trkpt lat="45.389807" lon="6.753435">
        <time>1970-01-01T00:00:00+00:00</time>
        <ele>2010.0</ele>
      </trkpt>
      <trkpt lat="45.389817" lon="6.753694">
        <time>1970-01-01T00:00:00+00:00</time>
        <ele>2013.0</ele>
      </trkpt>
      <trkpt lat="45.389653" lon="6.753807">
        <time>1970-01-01T00:00:00+00:00</time>
        <ele>2015.0</ele>
      </trkpt>
      <trkpt lat="45.38947" lon="6.753826">
        <time>1970-01-01T00:00:00+00:00</time>
        <ele>2014.0</ele>
      </trkpt>
      <trkpt lat="45.389533" lon="6.754069">
        <time>1970-01-01T00:00:00+00:00</time>
        <ele>2017.0</ele>
      </trkpt>
      <trkpt lat="45.389967" lon="6.754906">
        <time>1970-01-01T00:00:00+00:00</time>
        <ele>2027.0</ele>
      </trkpt>
      <trkpt lat="45.390363" lon="6.755484">
        <time>1970-01-01T00:00:00+00:00</time>
        <ele>2030.0</ele>
      </trkpt>
      <trkpt lat="45.390342" lon="6.755748">
        <time>1970-01-01T00:00:00+00:00</time>
        <ele>2034.0</ele>
      </trkpt>
      <trkpt lat="45.390604" lon="6.757018">
        <time>1970-01-01T00:00:00+00:00</time>
        <ele>2049.0</ele>
      </trkpt>
      <trkpt lat="45.391131" lon="6.758128">
        <time>1970-01-01T00:00:00+00:00</time>
        <ele>2058.0</ele>
      </trkpt>
      <trkpt lat="45.391522" lon="6.759322">
        <time>1970-01-01T00:00:00+00:00</time>
        <ele>2072.0</ele>
      </trkpt>
      <trkpt lat="45.391768" lon="6.759719">
        <time>1970-01-01T00:00:00+00:00</time>
        <ele>2079.0</ele>
      </trkpt>
      <trkpt lat="45.391828" lon="6.760227">
        <time>1970-01-01T00:00:00+00:00</time>
        <ele>2091.0</ele>
      </trkpt>
      <trkpt lat="45.392471" lon="6.761171">
        <time>1970-01-01T00:00:00+00:00</time>
        <ele>2094.0</ele>
      </trkpt>
      <trkpt lat="45.393404" lon="6.762019">
        <time>1970-01-01T00:00:00+00:00</time>
        <ele>2096.0</ele>
      </trkpt>
      <trkpt lat="45.393679" lon="6.762358">
        <time>1970-01-01T00:00:00+00:00</time>
        <ele>2102.0</ele>
      </trkpt>
      <trkpt lat="45.393777" lon="6.762589">
        <time>1970-01-01T00:00:00+00:00</time>
        <ele>2109.0</ele>
      </trkpt>
      <trkpt lat="45.393646" lon="6.762778">
        <time>1970-01-01T00:00:00+00:00</time>
        <ele>2117.0</ele>
      </trkpt>
      <trkpt lat="45.393927" lon="6.763449">
        <time>1970-01-01T00:00:00+00:00</time>
        <ele>2133.0</ele>
      </trkpt>
      <trkpt lat="45.393914" lon="6.763705">
        <time>1970-01-01T00:00:00+00:00</time>
        <ele>2141.0</ele>
      </trkpt>
      <trkpt lat="45.394185" lon="6.76467">
        <time>1970-01-01T00:00:00+00:00</time>
        <ele>2160.0</ele>
      </trkpt>
      <trkpt lat="45.394059" lon="6.764854">
        <time>1970-01-01T00:00:00+00:00</time>
        <ele>2169.0</ele>
      </trkpt>
      <trkpt lat="45.39418" lon="6.765053">
        <time>1970-01-01T00:00:00+00:00</time>
        <ele>2172.0</ele>
      </trkpt>
      <trkpt lat="45.39418" lon="6.765312">
        <time>1970-01-01T00:00:00+00:00</time>
        <ele>2179.0</ele>
      </trkpt>
      <trkpt lat="45.394258" lon="6.765548">
        <time>1970-01-01T00:00:00+00:00</time>
        <ele>2185.0</ele>
      </trkpt>
      <trkpt lat="45.394146" lon="6.765749">
        <time>1970-01-01T00:00:00+00:00</time>
        <ele>2198.0</ele>
      </trkpt>
      <trkpt lat="45.394364" lon="6.766465">
        <time>1970-01-01T00:00:00+00:00</time>
        <ele>2212.0</ele>
      </trkpt>
      <trkpt lat="45.394437" lon="6.766974">
        <time>1970-01-01T00:00:00+00:00</time>
        <ele>2229.0</ele>
      </trkpt>
      <trkpt lat="45.394383" lon="6.767992">
        <time>1970-01-01T00:00:00+00:00</time>
        <ele>2252.0</ele>
      </trkpt>
      <trkpt lat="45.395286" lon="6.769632">
        <time>1970-01-01T00:00:00+00:00</time>
        <ele>2268.0</ele>
      </trkpt>
      <trkpt lat="45.395531" lon="6.770333">
        <time>1970-01-01T00:00:00+00:00</time>
        <ele>2277.0</ele>
      </trkpt>
      <trkpt lat="45.39561" lon="6.770848">
        <time>1970-01-01T00:00:00+00:00</time>
        <ele>2285.0</ele>
      </trkpt>
      <trkpt lat="45.395958" lon="6.772052">
        <time>1970-01-01T00:00:00+00:00</time>
        <ele>2303.0</ele>
      </trkpt>
      <trkpt lat="45.396758" lon="6.773506">
        <time>1970-01-01T00:00:00+00:00</time>
        <ele>2307.0</ele>
      </trkpt>
      <trkpt lat="45.397249" lon="6.7746">
        <time>1970-01-01T00:00:00+00:00</time>
        <ele>2320.0</ele>
      </trkpt>
      <trkpt lat="45.397245" lon="6.774864">
        <time>1970-01-01T00:00:00+00:00</time>
        <ele>2319.0</ele>
      </trkpt>
      <trkpt lat="45.397462" lon="6.775871">
        <time>1970-01-01T00:00:00+00:00</time>
        <ele>2319.0</ele>
      </trkpt>
      <trkpt lat="45.397611" lon="6.776897">
        <time>1970-01-01T00:00:00+00:00</time>
        <ele>2320.0</ele>
      </trkpt>
      <trkpt lat="45.39762" lon="6.778211">
        <time>1970-01-01T00:00:00+00:00</time>
        <ele>2338.0</ele>
      </trkpt>
      <trkpt lat="45.397706" lon="6.778717">
        <time>1970-01-01T00:00:00+00:00</time>
        <ele>2344.0</ele>
      </trkpt>
      <trkpt lat="45.397612" lon="6.778952">
        <time>1970-01-01T00:00:00+00:00</time>
        <ele>2350.0</ele>
      </trkpt>
      <trkpt lat="45.397614" lon="6.779211">
        <time>1970-01-01T00:00:00+00:00</time>
        <ele>2354.0</ele>
      </trkpt>
      <trkpt lat="45.397668" lon="6.779463">
        <time>1970-01-01T00:00:00+00:00</time>
        <ele>2357.0</ele>
      </trkpt>
      <trkpt lat="45.397803" lon="6.779643">
        <time>1970-01-01T00:00:00+00:00</time>
        <ele>2357.0</ele>
      </trkpt>
      <trkpt lat="45.398226" lon="6.781368">
        <time>1970-01-01T00:00:00+00:00</time>
        <ele>2375.0</ele>
      </trkpt>
      <trkpt lat="45.398667" lon="6.782216">
        <time>1970-01-01T00:00:00+00:00</time>
        <ele>2383.0</ele>
      </trkpt>
      <trkpt lat="45.398832" lon="6.78232">
        <time>1970-01-01T00:00:00+00:00</time>
        <ele>2382.0</ele>
      </trkpt>
      <trkpt lat="45.398797" lon="6.782576">
        <time>1970-01-01T00:00:00+00:00</time>
        <ele>2390.0</ele>
      </trkpt>
      <trkpt lat="45.398873" lon="6.782813">
        <time>1970-01-01T00:00:00+00:00</time>
        <ele>2396.0</ele>
      </trkpt>
      <trkpt lat="45.39881" lon="6.783323">
        <time>1970-01-01T00:00:00+00:00</time>
        <ele>2408.0</ele>
      </trkpt>
      <trkpt lat="45.398821" lon="6.783838">
        <time>1970-01-01T00:00:00+00:00</time>
        <ele>2417.0</ele>
      </trkpt>
      <trkpt lat="45.399001" lon="6.783902">
        <time>1970-01-01T00:00:00+00:00</time>
        <ele>2415.0</ele>
      </trkpt>
      <trkpt lat="45.398972" lon="6.784417">
        <time>1970-01-01T00:00:00+00:00</time>
        <ele>2426.0</ele>
      </trkpt>
      <trkpt lat="45.398842" lon="6.784902">
        <time>1970-01-01T00:00:00+00:00</time>
        <ele>2445.0</ele>
      </trkpt>
      <trkpt lat="45.39901" lon="6.785009">
        <time>1970-01-01T00:00:00+00:00</time>
        <ele>2448.0</ele>
      </trkpt>
      <trkpt lat="45.399113" lon="6.785226">
        <time>1970-01-01T00:00:00+00:00</time>
        <ele>2453.0</ele>
      </trkpt>
      <trkpt lat="45.399081" lon="6.78574">
        <time>1970-01-01T00:00:00+00:00</time>
        <ele>2465.0</ele>
      </trkpt>
      <trkpt lat="45.39896" lon="6.786232">
        <time>1970-01-01T00:00:00+00:00</time>
        <ele>2471.0</ele>
      </trkpt>
      <trkpt lat="45.398885" lon="6.787014">
        <time>1970-01-01T00:00:00+00:00</time>
        <ele>2473.0</ele>
      </trkpt>
      <trkpt lat="45.399105" lon="6.788827">
        <time>1970-01-01T00:00:00+00:00</time>
        <ele>2484.0</ele>
      </trkpt>
      <trkpt lat="45.39928" lon="6.789577">
        <time>1970-01-01T00:00:00+00:00</time>
        <ele>2489.0</ele>
      </trkpt>
      <trkpt lat="45.399273" lon="6.790099">
        <time>1970-01-01T00:00:00+00:00</time>
        <ele>2490.0</ele>
      </trkpt>
      <trkpt lat="45.399576" lon="6.791862">
        <time>1970-01-01T00:00:00+00:00</time>
        <ele>2522.0</ele>
      </trkpt>
      <trkpt lat="45.399953" lon="6.791299">
        <time>1970-01-01T00:00:00+00:00</time>
        <ele>2539.0</ele>
      </trkpt>
      <trkpt lat="45.400146" lon="6.790859">
        <time>1970-01-01T00:00:00+00:00</time>
        <ele>2550.0</ele>
      </trkpt>
      <trkpt lat="45.400312" lon="6.791599">
        <time>1970-01-01T00:00:00+00:00</time>
        <ele>2567.0</ele>
      </trkpt>
      <trkpt lat="45.400453" lon="6.791434">
        <time>1970-01-01T00:00:00+00:00</time>
        <ele>2572.0</ele>
      </trkpt>
      <trkpt lat="45.400617" lon="6.790975">
        <time>1970-01-01T00:00:00+00:00</time>
        <ele>2580.0</ele>
      </trkpt>
      <trkpt lat="45.401015" lon="6.791531">
        <time>1970-01-01T00:00:00+00:00</time>
        <ele>2600.0</ele>
      </trkpt>
      <trkpt lat="45.401184" lon="6.79165">
        <time>1970-01-01T00:00:00+00:00</time>
        <ele>2605.0</ele>
      </trkpt>
      <trkpt lat="45.401558" lon="6.792553">
        <time>1970-01-01T00:00:00+00:00</time>
        <ele>2615.0</ele>
      </trkpt>
      <trkpt lat="45.401713" lon="6.792703">
        <time>1970-01-01T00:00:00+00:00</time>
        <ele>2615.0</ele>
      </trkpt>
      <trkpt lat="45.402636" lon="6.79434">
        <time>1970-01-01T00:00:00+00:00</time>
        <ele>2638.0</ele>
      </trkpt>
      <trkpt lat="45.402932" lon="6.794647">
        <time>1970-01-01T00:00:00+00:00</time>
        <ele>2651.0</ele>
      </trkpt>
      <trkpt lat="45.402929" lon="6.794909">
        <time>1970-01-01T00:00:00+00:00</time>
        <ele>2653.0</ele>
      </trkpt>
      <trkpt lat="45.4031" lon="6.795367">
        <time>1970-01-01T00:00:00+00:00</time>
        <ele>2660.0</ele>
      </trkpt>
      <trkpt lat="45.404114" lon="6.796842">
        <time>1970-01-01T00:00:00+00:00</time>
        <ele>2691.0</ele>
      </trkpt>
      <trkpt lat="45.404815" lon="6.798049">
        <time>1970-01-01T00:00:00+00:00</time>
        <ele>2720.0</ele>
      </trkpt>
      <trkpt lat="45.405536" lon="6.798876">
        <time>1970-01-01T00:00:00+00:00</time>
        <ele>2737.0</ele>
      </trkpt>
      <trkpt lat="45.405863" lon="6.799496">
        <time>1970-01-01T00:00:00+00:00</time>
        <ele>2750.0</ele>
      </trkpt>
      <trkpt lat="45.406657" lon="6.800585">
        <time>1970-01-01T00:00:00+00:00</time>
        <ele>2771.0</ele>
      </trkpt>
      <trkpt lat="45.406971" lon="6.801237">
        <time>1970-01-01T00:00:00+00:00</time>
        <ele>2778.0</ele>
      </trkpt>
      <trkpt lat="45.408006" lon="6.803064">
        <time>1970-01-01T00:00:00+00:00</time>
        <ele>2798.0</ele>
      </trkpt>
      <trkpt lat="45.409086" lon="6.804855">
        <time>1970-01-01T00:00:00+00:00</time>
        <ele>2818.0</ele>
      </trkpt>
      <trkpt lat="45.40953" lon="6.805996">
        <time>1970-01-01T00:00:00+00:00</time>
        <ele>2835.0</ele>
      </trkpt>
      <trkpt lat="45.409919" lon="6.806532">
        <time>1970-01-01T00:00:00+00:00</time>
        <ele>2846.0</ele>
      </trkpt>
      <trkpt lat="45.410359" lon="6.807659">
        <time>1970-01-01T00:00:00+00:00</time>
        <ele>2860.0</ele>
      </trkpt>
      <trkpt lat="45.410642" lon="6.809453">
        <time>1970-01-01T00:00:00+00:00</time>
        <ele>2872.0</ele>
      </trkpt>
      <trkpt lat="45.410896" lon="6.81071">
        <time>1970-01-01T00:00:00+00:00</time>
        <ele>2885.0</ele>
      </trkpt>
      <trkpt lat="45.411043" lon="6.812265">
        <time>1970-01-01T00:00:00+00:00</time>
        <ele>2911.0</ele>
      </trkpt>
      <trkpt lat="45.411156" lon="6.812474">
        <time>1970-01-01T00:00:00+00:00</time>
        <ele>2916.0</ele>
      </trkpt>
      <trkpt lat="45.411277" lon="6.812961">
        <time>1970-01-01T00:00:00+00:00</time>
        <ele>2927.0</ele>
      </trkpt>
      <trkpt lat="45.411427" lon="6.813105">
        <time>1970-01-01T00:00:00+00:00</time>
        <ele>2930.0</ele>
      </trkpt>
      <trkpt lat="45.411317" lon="6.813317">
        <time>1970-01-01T00:00:00+00:00</time>
        <ele>2936.0</ele>
      </trkpt>
      <trkpt lat="45.411338" lon="6.813578">
        <time>1970-01-01T00:00:00+00:00</time>
        <ele>2944.0</ele>
      </trkpt>
      <trkpt lat="45.411477" lon="6.813747">
        <time>1970-01-01T00:00:00+00:00</time>
        <ele>2947.0</ele>
      </trkpt>
      <trkpt lat="45.411227" lon="6.814119">
        <time>1970-01-01T00:00:00+00:00</time>
        <ele>2959.0</ele>
      </trkpt>
      <trkpt lat="45.4115" lon="6.81445">
        <time>1970-01-01T00:00:00+00:00</time>
        <ele>2964.0</ele>
      </trkpt>
      <trkpt lat="45.411432" lon="6.814688">
        <time>1970-01-01T00:00:00+00:00</time>
        <ele>2970.0</ele>
      </trkpt>
      <trkpt lat="45.41115" lon="6.81501">
        <time>1970-01-01T00:00:00+00:00</time>
        <ele>2984.0</ele>
      </trkpt>
      <trkpt lat="45.411265" lon="6.81521">
        <time>1970-01-01T00:00:00+00:00</time>
        <ele>2988.0</ele>
      </trkpt>
      <trkpt lat="45.411618" lon="6.815347">
        <time>1970-01-01T00:00:00+00:00</time>
        <ele>2991.0</ele>
      </trkpt>
      <trkpt lat="45.411518" lon="6.815565">
        <time>1970-01-01T00:00:00+00:00</time>
        <ele>2997.0</ele>
      </trkpt>
      <trkpt lat="45.411651" lon="6.815739">
        <time>1970-01-01T00:00:00+00:00</time>
        <ele>3002.0</ele>
      </trkpt>
      <trkpt lat="45.411649" lon="6.815996">
        <time>1970-01-01T00:00:00+00:00</time>
        <ele>3011.0</ele>
      </trkpt>
      <trkpt lat="45.411819" lon="6.816086">
        <time>1970-01-01T00:00:00+00:00</time>
        <ele>3018.0</ele>
      </trkpt>
      <trkpt lat="45.4117" lon="6.816281">
        <time>1970-01-01T00:00:00+00:00</time>
        <ele>3027.0</ele>
      </trkpt>
      <trkpt lat="45.411523" lon="6.816341">
        <time>1970-01-01T00:00:00+00:00</time>
        <ele>3035.0</ele>
      </trkpt>
      <trkpt lat="45.411673" lon="6.816491">
        <time>1970-01-01T00:00:00+00:00</time>
        <ele>3038.0</ele>
      </trkpt>
      <trkpt lat="45.411766" lon="6.816711">
        <time>1970-01-01T00:00:00+00:00</time>
        <ele>3050.0</ele>
      </trkpt>
      <trkpt lat="45.411589" lon="6.816764">
        <time>1970-01-01T00:00:00+00:00</time>
        <ele>3057.0</ele>
      </trkpt>
      <trkpt lat="45.411717" lon="6.816955">
        <time>1970-01-01T00:00:00+00:00</time>
        <ele>3064.0</ele>
      </trkpt>
      <trkpt lat="45.411739" lon="6.817471">
        <time>1970-01-01T00:00:00+00:00</time>
        <ele>3095.0</ele>
      </trkpt>
      <trkpt lat="45.411559" lon="6.817443">
        <time>1970-01-01T00:00:00+00:00</time>
        <ele>3092.0</ele>
      </trkpt>
      <trkpt lat="45.411605" lon="6.817691">
        <time>1970-01-01T00:00:00+00:00</time>
        <ele>3097.0</ele>
      </trkpt>
      <trkpt lat="45.411738" lon="6.817869">
        <time>1970-01-01T00:00:00+00:00</time>
        <ele>3094.0</ele>
      </trkpt>
      <trkpt lat="45.41182" lon="6.818107">
        <time>1970-01-01T00:00:00+00:00</time>
        <ele>3087.0</ele>
      </trkpt>
      <trkpt lat="45.411764" lon="6.817862">
        <time>1970-01-01T00:00:00+00:00</time>
        <ele>3095.0</ele>
      </trkpt>
      <trkpt lat="45.411601" lon="6.817696">
        <time>1970-01-01T00:00:00+00:00</time>
        <ele>3097.0</ele>
      </trkpt>
      <trkpt lat="45.411771" lon="6.817231">
        <time>1970-01-01T00:00:00+00:00</time>
        <ele>3082.0</ele>
      </trkpt>
      <trkpt lat="45.411694" lon="6.816441">
        <time>1970-01-01T00:00:00+00:00</time>
        <ele>3035.0</ele>
      </trkpt>
      <trkpt lat="45.411812" lon="6.816246">
        <time>1970-01-01T00:00:00+00:00</time>
        <ele>3027.0</ele>
      </trkpt>
      <trkpt lat="45.411675" lon="6.816045">
        <time>1970-01-01T00:00:00+00:00</time>
        <ele>3014.0</ele>
      </trkpt>
      <trkpt lat="45.41161" lon="6.815782">
        <time>1970-01-01T00:00:00+00:00</time>
        <ele>3003.0</ele>
      </trkpt>
      <trkpt lat="45.411653" lon="6.815532">
        <time>1970-01-01T00:00:00+00:00</time>
        <ele>2997.0</ele>
      </trkpt>
      <trkpt lat="45.411576" lon="6.814403">
        <time>1970-01-01T00:00:00+00:00</time>
        <ele>2964.0</ele>
      </trkpt>
      <trkpt lat="45.411424" lon="6.814204">
        <time>1970-01-01T00:00:00+00:00</time>
        <ele>2959.0</ele>
      </trkpt>
      <trkpt lat="45.411453" lon="6.813925">
        <time>1970-01-01T00:00:00+00:00</time>
        <ele>2952.0</ele>
      </trkpt>
      <trkpt lat="45.411368" lon="6.81368">
        <time>1970-01-01T00:00:00+00:00</time>
        <ele>2946.0</ele>
      </trkpt>
      <trkpt lat="45.411447" lon="6.813422">
        <time>1970-01-01T00:00:00+00:00</time>
        <ele>2939.0</ele>
      </trkpt>
      <trkpt lat="45.411323" lon="6.813183">
        <time>1970-01-01T00:00:00+00:00</time>
        <ele>2933.0</ele>
      </trkpt>
      <trkpt lat="45.411461" lon="6.812971">
        <time>1970-01-01T00:00:00+00:00</time>
        <ele>2927.0</ele>
      </trkpt>
      <trkpt lat="45.411125" lon="6.812176">
        <time>1970-01-01T00:00:00+00:00</time>
        <ele>2908.0</ele>
      </trkpt>
      <trkpt lat="45.41098" lon="6.810898">
        <time>1970-01-01T00:00:00+00:00</time>
        <ele>2887.0</ele>
      </trkpt>
      <trkpt lat="45.410295" lon="6.807362">
        <time>1970-01-01T00:00:00+00:00</time>
        <ele>2858.0</ele>
      </trkpt>
      <trkpt lat="45.410161" lon="6.807132">
        <time>1970-01-01T00:00:00+00:00</time>
        <ele>2856.0</ele>
      </trkpt>
      <trkpt lat="45.409893" lon="6.806392">
        <time>1970-01-01T00:00:00+00:00</time>
        <ele>2844.0</ele>
      </trkpt>
      <trkpt lat="45.409726" lon="6.806287">
        <time>1970-01-01T00:00:00+00:00</time>
        <ele>2841.0</ele>
      </trkpt>
      <trkpt lat="45.409649" lon="6.806027">
        <time>1970-01-01T00:00:00+00:00</time>
        <ele>2835.0</ele>
      </trkpt>
      <trkpt lat="45.409307" lon="6.805516">
        <time>1970-01-01T00:00:00+00:00</time>
        <ele>2827.0</ele>
      </trkpt>
      <trkpt lat="45.408831" lon="6.804516">
        <time>1970-01-01T00:00:00+00:00</time>
        <ele>2815.0</ele>
      </trkpt>
      <trkpt lat="45.40863" lon="6.803966">
        <time>1970-01-01T00:00:00+00:00</time>
        <ele>2809.0</ele>
      </trkpt>
      <trkpt lat="45.408004" lon="6.803004">
        <time>1970-01-01T00:00:00+00:00</time>
        <ele>2798.0</ele>
      </trkpt>
      <trkpt lat="45.406917" lon="6.801026">
        <time>1970-01-01T00:00:00+00:00</time>
        <ele>2775.0</ele>
      </trkpt>
      <trkpt lat="45.406572" lon="6.800267">
        <time>1970-01-01T00:00:00+00:00</time>
        <ele>2769.0</ele>
      </trkpt>
      <trkpt lat="45.406081" lon="6.799384">
        <time>1970-01-01T00:00:00+00:00</time>
        <ele>2755.0</ele>
      </trkpt>
      <trkpt lat="45.405911" lon="6.798878">
        <time>1970-01-01T00:00:00+00:00</time>
        <ele>2747.0</ele>
      </trkpt>
      <trkpt lat="45.405767" lon="6.798692">
        <time>1970-01-01T00:00:00+00:00</time>
        <ele>2743.0</ele>
      </trkpt>
      <trkpt lat="45.405362" lon="6.797785">
        <time>1970-01-01T00:00:00+00:00</time>
        <ele>2730.0</ele>
      </trkpt>
      <trkpt lat="45.405184" lon="6.797554">
        <time>1970-01-01T00:00:00+00:00</time>
        <ele>2725.0</ele>
      </trkpt>
      <trkpt lat="45.405068" lon="6.797281">
        <time>1970-01-01T00:00:00+00:00</time>
        <ele>2720.0</ele>
      </trkpt>
      <trkpt lat="45.40487" lon="6.79713">
        <time>1970-01-01T00:00:00+00:00</time>
        <ele>2714.0</ele>
      </trkpt>
      <trkpt lat="45.404791" lon="6.796882">
        <time>1970-01-01T00:00:00+00:00</time>
        <ele>2709.0</ele>
      </trkpt>
      <trkpt lat="45.404209" lon="6.796046">
        <time>1970-01-01T00:00:00+00:00</time>
        <ele>2690.0</ele>
      </trkpt>
      <trkpt lat="45.404104" lon="6.795721">
        <time>1970-01-01T00:00:00+00:00</time>
        <ele>2686.0</ele>
      </trkpt>
      <trkpt lat="45.403597" lon="6.795251">
        <time>1970-01-01T00:00:00+00:00</time>
        <ele>2674.0</ele>
      </trkpt>
      <trkpt lat="45.403496" lon="6.795037">
        <time>1970-01-01T00:00:00+00:00</time>
        <ele>2671.0</ele>
      </trkpt>
      <trkpt lat="45.403555" lon="6.79479">
        <time>1970-01-01T00:00:00+00:00</time>
        <ele>2670.0</ele>
      </trkpt>
      <trkpt lat="45.403358" lon="6.794745">
        <time>1970-01-01T00:00:00+00:00</time>
        <ele>2666.0</ele>
      </trkpt>
      <trkpt lat="45.403264" lon="6.794471">
        <time>1970-01-01T00:00:00+00:00</time>
        <ele>2660.0</ele>
      </trkpt>
      <trkpt lat="45.403074" lon="6.794481">
        <time>1970-01-01T00:00:00+00:00</time>
        <ele>2655.0</ele>
      </trkpt>
      <trkpt lat="45.403184" lon="6.794268">
        <time>1970-01-01T00:00:00+00:00</time>
        <ele>2653.0</ele>
      </trkpt>
      <trkpt lat="45.402643" lon="6.794184">
        <time>1970-01-01T00:00:00+00:00</time>
        <ele>2636.0</ele>
      </trkpt>
      <trkpt lat="45.402485" lon="6.794043">
        <time>1970-01-01T00:00:00+00:00</time>
        <ele>2631.0</ele>
      </trkpt>
      <trkpt lat="45.401336" lon="6.792146">
        <time>1970-01-01T00:00:00+00:00</time>
        <ele>2613.0</ele>
      </trkpt>
      <trkpt lat="45.400977" lon="6.791434">
        <time>1970-01-01T00:00:00+00:00</time>
        <ele>2599.0</ele>
      </trkpt>
      <trkpt lat="45.400796" lon="6.791314">
        <time>1970-01-01T00:00:00+00:00</time>
        <ele>2592.0</ele>
      </trkpt>
      <trkpt lat="45.40072" lon="6.791558">
        <time>1970-01-01T00:00:00+00:00</time>
        <ele>2590.0</ele>
      </trkpt>
      <trkpt lat="45.400623" lon="6.79134">
        <time>1970-01-01T00:00:00+00:00</time>
        <ele>2581.0</ele>
      </trkpt>
      <trkpt lat="45.400451" lon="6.791476">
        <time>1970-01-01T00:00:00+00:00</time>
        <ele>2572.0</ele>
      </trkpt>
      <trkpt lat="45.400195" lon="6.791094">
        <time>1970-01-01T00:00:00+00:00</time>
        <ele>2554.0</ele>
      </trkpt>
      <trkpt lat="45.400096" lon="6.790832">
        <time>1970-01-01T00:00:00+00:00</time>
        <ele>2546.0</ele>
      </trkpt>
      <trkpt lat="45.399902" lon="6.789683">
        <time>1970-01-01T00:00:00+00:00</time>
        <ele>2527.0</ele>
      </trkpt>
      <trkpt lat="45.399632" lon="6.788919">
        <time>1970-01-01T00:00:00+00:00</time>
        <ele>2516.0</ele>
      </trkpt>
      <trkpt lat="45.399447" lon="6.787899">
        <time>1970-01-01T00:00:00+00:00</time>
        <ele>2504.0</ele>
      </trkpt>
      <trkpt lat="45.399313" lon="6.78771">
        <time>1970-01-01T00:00:00+00:00</time>
        <ele>2496.0</ele>
      </trkpt>
      <trkpt lat="45.398955" lon="6.787489">
        <time>1970-01-01T00:00:00+00:00</time>
        <ele>2477.0</ele>
      </trkpt>
      <trkpt lat="45.398912" lon="6.786898">
        <time>1970-01-01T00:00:00+00:00</time>
        <ele>2474.0</ele>
      </trkpt>
      <trkpt lat="45.398997" lon="6.78639">
        <time>1970-01-01T00:00:00+00:00</time>
        <ele>2472.0</ele>
      </trkpt>
      <trkpt lat="45.398955" lon="6.786075">
        <time>1970-01-01T00:00:00+00:00</time>
        <ele>2470.0</ele>
      </trkpt>
      <trkpt lat="45.399108" lon="6.785934">
        <time>1970-01-01T00:00:00+00:00</time>
        <ele>2467.0</ele>
      </trkpt>
      <trkpt lat="45.39917" lon="6.785398">
        <time>1970-01-01T00:00:00+00:00</time>
        <ele>2455.0</ele>
      </trkpt>
      <trkpt lat="45.399131" lon="6.785135">
        <time>1970-01-01T00:00:00+00:00</time>
        <ele>2450.0</ele>
      </trkpt>
      <trkpt lat="45.398979" lon="6.784903">
        <time>1970-01-01T00:00:00+00:00</time>
        <ele>2442.0</ele>
      </trkpt>
      <trkpt lat="45.39896" lon="6.784332">
        <time>1970-01-01T00:00:00+00:00</time>
        <ele>2425.0</ele>
      </trkpt>
      <trkpt lat="45.398843" lon="6.784134">
        <time>1970-01-01T00:00:00+00:00</time>
        <ele>2422.0</ele>
      </trkpt>
      <trkpt lat="45.398982" lon="6.783876">
        <time>1970-01-01T00:00:00+00:00</time>
        <ele>2414.0</ele>
      </trkpt>
      <trkpt lat="45.398835" lon="6.783317">
        <time>1970-01-01T00:00:00+00:00</time>
        <ele>2408.0</ele>
      </trkpt>
      <trkpt lat="45.39885" lon="6.78279">
        <time>1970-01-01T00:00:00+00:00</time>
        <ele>2396.0</ele>
      </trkpt>
      <trkpt lat="45.398198" lon="6.781194">
        <time>1970-01-01T00:00:00+00:00</time>
        <ele>2372.0</ele>
      </trkpt>
      <trkpt lat="45.397856" lon="6.779851">
        <time>1970-01-01T00:00:00+00:00</time>
        <ele>2359.0</ele>
      </trkpt>
      <trkpt lat="45.397491" lon="6.778818">
        <time>1970-01-01T00:00:00+00:00</time>
        <ele>2350.0</ele>
      </trkpt>
      <trkpt lat="45.397463" lon="6.778168">
        <time>1970-01-01T00:00:00+00:00</time>
        <ele>2340.0</ele>
      </trkpt>
      <trkpt lat="45.397573" lon="6.777542">
        <time>1970-01-01T00:00:00+00:00</time>
        <ele>2328.0</ele>
      </trkpt>
      <trkpt lat="45.397586" lon="6.776937">
        <time>1970-01-01T00:00:00+00:00</time>
        <ele>2320.0</ele>
      </trkpt>
      <trkpt lat="45.397418" lon="6.775553">
        <time>1970-01-01T00:00:00+00:00</time>
        <ele>2319.0</ele>
      </trkpt>
      <trkpt lat="45.397192" lon="6.77449">
        <time>1970-01-01T00:00:00+00:00</time>
        <ele>2319.0</ele>
      </trkpt>
      <trkpt lat="45.396421" lon="6.772832">
        <time>1970-01-01T00:00:00+00:00</time>
        <ele>2305.0</ele>
      </trkpt>
      <trkpt lat="45.395878" lon="6.772091">
        <time>1970-01-01T00:00:00+00:00</time>
        <ele>2307.0</ele>
      </trkpt>
      <trkpt lat="45.395608" lon="6.771579">
        <time>1970-01-01T00:00:00+00:00</time>
        <ele>2308.0</ele>
      </trkpt>
      <trkpt lat="45.394873" lon="6.769804">
        <time>1970-01-01T00:00:00+00:00</time>
        <ele>2292.0</ele>
      </trkpt>
      <trkpt lat="45.394527" lon="6.769149">
        <time>1970-01-01T00:00:00+00:00</time>
        <ele>2280.0</ele>
      </trkpt>
      <trkpt lat="45.394081" lon="6.76852">
        <time>1970-01-01T00:00:00+00:00</time>
        <ele>2275.0</ele>
      </trkpt>
      <trkpt lat="45.393807" lon="6.7674">
        <time>1970-01-01T00:00:00+00:00</time>
        <ele>2255.0</ele>
      </trkpt>
      <trkpt lat="45.393218" lon="6.766257">
        <time>1970-01-01T00:00:00+00:00</time>
        <ele>2238.0</ele>
      </trkpt>
      <trkpt lat="45.392624" lon="6.764437">
        <time>1970-01-01T00:00:00+00:00</time>
        <ele>2221.0</ele>
      </trkpt>
      <trkpt lat="45.392253" lon="6.763692">
        <time>1970-01-01T00:00:00+00:00</time>
        <ele>2205.0</ele>
      </trkpt>
      <trkpt lat="45.392295" lon="6.763426">
        <time>1970-01-01T00:00:00+00:00</time>
        <ele>2195.0</ele>
      </trkpt>
      <trkpt lat="45.392198" lon="6.763203">
        <time>1970-01-01T00:00:00+00:00</time>
        <ele>2192.0</ele>
      </trkpt>
      <trkpt lat="45.391881" lon="6.762953">
        <time>1970-01-01T00:00:00+00:00</time>
        <ele>2196.0</ele>
      </trkpt>
      <trkpt lat="45.39176" lon="6.762763">
        <time>1970-01-01T00:00:00+00:00</time>
        <ele>2196.0</ele>
      </trkpt>
      <trkpt lat="45.391745" lon="6.762508">
        <time>1970-01-01T00:00:00+00:00</time>
        <ele>2181.0</ele>
      </trkpt>
      <trkpt lat="45.391554" lon="6.762068">
        <time>1970-01-01T00:00:00+00:00</time>
        <ele>2165.0</ele>
      </trkpt>
      <trkpt lat="45.391586" lon="6.761762">
        <time>1970-01-01T00:00:00+00:00</time>
        <ele>2151.0</ele>
      </trkpt>
      <trkpt lat="45.39183" lon="6.761312">
        <time>1970-01-01T00:00:00+00:00</time>
        <ele>2127.0</ele>
      </trkpt>
      <trkpt lat="45.391885" lon="6.761043">
        <time>1970-01-01T00:00:00+00:00</time>
        <ele>2116.0</ele>
      </trkpt>
      <trkpt lat="45.391641" lon="6.760304">
        <time>1970-01-01T00:00:00+00:00</time>
        <ele>2103.0</ele>
      </trkpt>
      <trkpt lat="45.391427" lon="6.75984">
        <time>1970-01-01T00:00:00+00:00</time>
        <ele>2096.0</ele>
      </trkpt>
      <trkpt lat="45.391142" lon="6.759454">
        <time>1970-01-01T00:00:00+00:00</time>
        <ele>2093.0</ele>
      </trkpt>
      <trkpt lat="45.390853" lon="6.758019">
        <time>1970-01-01T00:00:00+00:00</time>
        <ele>2069.0</ele>
      </trkpt>
      <trkpt lat="45.39062" lon="6.757207">
        <time>1970-01-01T00:00:00+00:00</time>
        <ele>2054.0</ele>
      </trkpt>
      <trkpt lat="45.390064" lon="6.7561">
        <time>1970-01-01T00:00:00+00:00</time>
        <ele>2047.0</ele>
      </trkpt>
      <trkpt lat="45.389906" lon="6.755595">
        <time>1970-01-01T00:00:00+00:00</time>
        <ele>2041.0</ele>
      </trkpt>
      <trkpt lat="45.389287" lon="6.754227">
        <time>1970-01-01T00:00:00+00:00</time>
        <ele>2020.0</ele>
      </trkpt>
      <trkpt lat="45.389349" lon="6.753987">
        <time>1970-01-01T00:00:00+00:00</time>
        <ele>2015.0</ele>
      </trkpt>
      <trkpt lat="45.389493" lon="6.753818">
        <time>1970-01-01T00:00:00+00:00</time>
        <ele>2014.0</ele>
      </trkpt>
      <trkpt lat="45.389674" lon="6.753759">
        <time>1970-01-01T00:00:00+00:00</time>
        <ele>2014.0</ele>
      </trkpt>
      <trkpt lat="45.389847" lon="6.753831">
        <time>1970-01-01T00:00:00+00:00</time>
        <ele>2015.0</ele>
      </trkpt>
      <trkpt lat="45.389757" lon="6.753058">
        <time>1970-01-01T00:00:00+00:00</time>
        <ele>2008.0</ele>
      </trkpt>
      <trkpt lat="45.388968" lon="6.751262">
        <time>1970-01-01T00:00:00+00:00</time>
        <ele>1990.0</ele>
      </trkpt>
      <trkpt lat="45.388903" lon="6.751019">
        <time>1970-01-01T00:00:00+00:00</time>
        <ele>1986.0</ele>
      </trkpt>
      <trkpt lat="45.388927" lon="6.75076">
        <time>1970-01-01T00:00:00+00:00</time>
        <ele>1984.0</ele>
      </trkpt>
      <trkpt lat="45.388587" lon="6.750135">
        <time>1970-01-01T00:00:00+00:00</time>
        <ele>1969.0</ele>
      </trkpt>
      <trkpt lat="45.38829" lon="6.749821">
        <time>1970-01-01T00:00:00+00:00</time>
        <ele>1959.0</ele>
      </trkpt>
      <trkpt lat="45.388312" lon="6.749561">
        <time>1970-01-01T00:00:00+00:00</time>
        <ele>1959.0</ele>
      </trkpt>
      <trkpt lat="45.387573" lon="6.748209">
        <time>1970-01-01T00:00:00+00:00</time>
        <ele>1927.0</ele>
      </trkpt>
      <trkpt lat="45.387166" lon="6.747299">
        <time>1970-01-01T00:00:00+00:00</time>
        <ele>1906.0</ele>
      </trkpt>
      <trkpt lat="45.386898" lon="6.746942">
        <time>1970-01-01T00:00:00+00:00</time>
        <ele>1895.0</ele>
      </trkpt>
      <trkpt lat="45.386981" lon="6.74508">
        <time>1970-01-01T00:00:00+00:00</time>
        <ele>1857.0</ele>
      </trkpt>
      <trkpt lat="45.386865" lon="6.743757">
        <time>1970-01-01T00:00:00+00:00</time>
        <ele>1839.0</ele>
      </trkpt>
      <trkpt lat="45.386461" lon="6.742902">
        <time>1970-01-01T00:00:00+00:00</time>
        <ele>1815.0</ele>
      </trkpt>
      <trkpt lat="45.386159" lon="6.742602">
        <time>1970-01-01T00:00:00+00:00</time>
        <ele>1801.0</ele>
      </trkpt>
      <trkpt lat="45.386011" lon="6.742753">
        <time>1970-01-01T00:00:00+00:00</time>
        <ele>1798.0</ele>
      </trkpt>
      <trkpt lat="45.385878" lon="6.742562">
        <time>1970-01-01T00:00:00+00:00</time>
        <ele>1790.0</ele>
      </trkpt>
      <trkpt lat="45.385818" lon="6.742309">
        <time>1970-01-01T00:00:00+00:00</time>
        <ele>1787.0</ele>
      </trkpt>
      <trkpt lat="45.385562" lon="6.741936">
        <time>1970-01-01T00:00:00+00:00</time>
        <ele>1779.0</ele>
      </trkpt>
      <trkpt lat="45.385394" lon="6.741822">
        <time>1970-01-01T00:00:00+00:00</time>
        <ele>1776.0</ele>
      </trkpt>
      <trkpt lat="45.385221" lon="6.741902">
        <time>1970-01-01T00:00:00+00:00</time>
        <ele>1771.0</ele>
      </trkpt>
      <trkpt lat="45.385064" lon="6.741773">
        <time>1970-01-01T00:00:00+00:00</time>
        <ele>1765.0</ele>
      </trkpt>
      <trkpt lat="45.384805" lon="6.74139">
        <time>1970-01-01T00:00:00+00:00</time>
        <ele>1754.0</ele>
      </trkpt>
      <trkpt lat="45.384504" lon="6.740705">
        <time>1970-01-01T00:00:00+00:00</time>
        <ele>1744.0</ele>
      </trkpt>
      <trkpt lat="45.384233" lon="6.740335">
        <time>1970-01-01T00:00:00+00:00</time>
        <ele>1738.0</ele>
      </trkpt>
      <trkpt lat="45.38418" lon="6.740083">
        <time>1970-01-01T00:00:00+00:00</time>
        <ele>1736.0</ele>
      </trkpt>
      <trkpt lat="45.383802" lon="6.739521">
        <time>1970-01-01T00:00:00+00:00</time>
        <ele>1719.0</ele>
      </trkpt>
      <trkpt lat="45.383507" lon="6.739203">
        <time>1970-01-01T00:00:00+00:00</time>
        <ele>1709.0</ele>
      </trkpt>
      <trkpt lat="45.383302" lon="6.738763">
        <time>1970-01-01T00:00:00+00:00</time>
        <ele>1699.0</ele>
      </trkpt>
      <trkpt lat="45.382495" lon="6.737648">
        <time>1970-01-01T00:00:00+00:00</time>
        <ele>1674.0</ele>
      </trkpt>
      <trkpt lat="45.382133" lon="6.737041">
        <time>1970-01-01T00:00:00+00:00</time>
        <ele>1663.0</ele>
      </trkpt>
      <trkpt lat="45.38186" lon="6.736344">
        <time>1970-01-01T00:00:00+00:00</time>
        <ele>1656.0</ele>
      </trkpt>
      <trkpt lat="45.381775" lon="6.735825">
        <time>1970-01-01T00:00:00+00:00</time>
        <ele>1654.0</ele>
      </trkpt>
      <trkpt lat="45.381847" lon="6.73559">
        <time>1970-01-01T00:00:00+00:00</time>
        <ele>1654.0</ele>
      </trkpt>
    </trkseg>
  </trk>
</gpx>
